Hillsdale, MI

11:09 AM EST on November 12, 2019 (GMT -0500)
Hillsdale Municipal

Weather History for KJYM - September, 2019

Change the Weather History Date:

Monday, September 9, 2019

  Actual Average Record
Temperature  
Mean Temperature 64 °F -  
Max Temperature 74 °F 76 °F 95 °F (1978)
Min Temperature 54 °F 52 °F 36 °F (1986)
Degree Days  
Heating Degree Days 1    
Growing Degree Days 14 (Base 50)    
Moisture  
Dew Point 54 °F    
Average Humidity 73    
Maximum Humidity 86    
Minimum Humidity 55    
Precipitation  
Precipitation 0.00 in - - ()
Sea Level Pressure  
Sea Level Pressure 30.22 in    
Wind  
Wind Speed 6 mph ()    
Max Wind Speed 10 mph    
Max Gust Speed 16 mph    
Visibility 10.0 miles    
Events      
Averages and records for this station are not official NWS values.
T = Trace of Precipitation, MM = Missing Value Source: Averaged Metar Reports

Daily Weather History Graph

Daily Weather History Graph

Search for Another Location

Airport or City:

Astronomy

Sep. 09, 2019 Rise Set
Actual Time 7:12 AM EDT 7:58 PM EDT
Civil Twilight 6:43 AM EDT 8:26 PM EDT
Nautical Twilight 6:10 AM EDT 9:00 PM EDT
Astronomical Twilight 5:35 AM EDT 9:34 PM EDT
Moon 5:57 PM EDT (9/9) 2:38 AM EDT (9/9)
Length of Visible Light 13h 43m
Length of Day
12h 46m
Waxing Gibbous, 83% of the Moon is Illuminated
Sep 9
Waxing Gibbous
Sep 14
Full
Sep 21
Last Quarter
Sep 28
New
Oct 5
First Quarter

Hourly Weather History & Observations

Time (EDT) Temp. Dew Point Humidity Pressure Visibility Wind Dir Wind Speed Gust Speed Precip Events Conditions
12:17 AM 58.6 °F 54.3 °F 86% 30.20 in 10.0 mi East 8.1 mph - N/A   Overcast
12:35 AM 58.1 °F 53.2 °F 84% 30.21 in 10.0 mi East 9.2 mph - N/A   Overcast
12:55 AM 57.7 °F 52.7 °F 83% 30.21 in 10.0 mi East 6.9 mph - N/A   Overcast
12:56 AM 57.7 °F 52.7 °F 83% 30.21 in 10.0 mi East 6.9 mph - N/A   Overcast
1:15 AM 57.4 °F 52.5 °F 84% 30.21 in 10.0 mi East 10.4 mph - N/A   Overcast
1:20 AM 57.4 °F 52.2 °F 83% 30.21 in 10.0 mi East 10.4 mph - N/A   Overcast
1:38 AM 56.8 °F 51.4 °F 82% 30.22 in 10.0 mi East 9.2 mph - N/A   Overcast
1:56 AM 56.3 °F 50.2 °F 80% 30.21 in 10.0 mi East 9.2 mph - N/A   Overcast
2:15 AM 55.9 °F 50.4 °F 82% 30.22 in 10.0 mi East 4.6 mph - N/A   Overcast
2:35 AM 55.8 °F 48.7 °F 77% 30.21 in 10.0 mi East 5.8 mph - N/A   Overcast
2:36 AM 55.8 °F 48.7 °F 77% 30.21 in 10.0 mi East 4.6 mph - N/A   Overcast
2:58 AM 55.6 °F 48.9 °F 78% 30.21 in 10.0 mi East 4.6 mph - N/A   Overcast
3:17 AM 55.4 °F 48.9 °F 79% 30.21 in 10.0 mi East 4.6 mph - N/A   Overcast
3:35 AM 55.2 °F 49.1 °F 80% 30.20 in 10.0 mi East 5.8 mph - N/A   Overcast
3:55 AM 55.4 °F 48.9 °F 79% 30.20 in 10.0 mi East 5.8 mph - N/A   Overcast
4:15 AM 55.0 °F 48.6 °F 79% 30.20 in 10.0 mi East 6.9 mph - N/A   Overcast
4:20 AM 55.0 °F 48.4 °F 78% 30.20 in 10.0 mi East 6.9 mph - N/A   Overcast
4:38 AM 54.9 °F 48.4 °F 79% 30.19 in 10.0 mi East 5.8 mph - N/A   Overcast
4:56 AM 54.9 °F 48.6 °F 79% 30.20 in 10.0 mi East 4.6 mph - N/A   Overcast
5:15 AM 54.9 °F 48.7 °F 80% 30.20 in 10.0 mi East 4.6 mph - N/A   Overcast
5:35 AM 54.9 °F 49.1 °F 81% 30.20 in 10.0 mi East 5.8 mph - N/A   Overcast
5:59 AM 54.9 °F 49.1 °F 81% 30.21 in 10.0 mi East 4.6 mph - N/A   Overcast
6:17 AM 54.9 °F 49.1 °F 81% 30.22 in 10.0 mi Calm Calm - N/A   Overcast
6:35 AM 55.4 °F 49.5 °F 80% 30.23 in 10.0 mi East 3.5 mph - N/A   Overcast
6:55 AM 55.4 °F 49.6 °F 81% 30.23 in 10.0 mi Calm Calm - N/A   Overcast
7:15 AM 55.0 °F 50.0 °F 83% 30.25 in 10.0 mi ENE 3.5 mph - N/A   Overcast
7:20 AM 55.0 °F 50.2 °F 84% 30.25 in 10.0 mi East 3.5 mph - N/A   Overcast
7:38 AM 54.9 °F 50.2 °F 84% 30.25 in 10.0 mi East 3.5 mph - N/A   Overcast
7:56 AM 55.4 °F 50.2 °F 83% 30.25 in 10.0 mi East 4.6 mph - N/A   Overcast
8:15 AM 55.8 °F 50.4 °F 82% 30.25 in 10.0 mi East 4.6 mph - N/A   Overcast
8:35 AM 56.7 °F 50.9 °F 81% 30.25 in 10.0 mi East 5.8 mph - N/A   Overcast
8:59 AM 57.6 °F 52.0 °F 82% 30.26 in 10.0 mi East 4.6 mph - N/A   Overcast
9:17 AM 58.6 °F 53.1 °F 82% 30.26 in 10.0 mi East 4.6 mph - N/A   Overcast
9:35 AM 60.1 °F 54.1 °F 81% 30.27 in 10.0 mi East 5.8 mph - N/A   Mostly Cloudy
9:55 AM 62.4 °F 55.4 °F 78% 30.27 in 10.0 mi East 6.9 mph - N/A   Scattered Clouds
10:15 AM 63.3 °F 54.9 °F 74% 30.27 in 10.0 mi East 4.6 mph - N/A   Mostly Cloudy
10:38 AM 64.0 °F 55.9 °F 75% 30.26 in 10.0 mi ESE 4.6 mph - N/A   Overcast
10:56 AM 64.9 °F 54.7 °F 69% 30.26 in 10.0 mi East 9.2 mph - N/A   Overcast
11:15 AM 65.7 °F 55.0 °F 69% 30.26 in 10.0 mi ESE 10.4 mph - N/A   Overcast
11:59 AM 68.2 °F 55.6 °F 64% 30.25 in 10.0 mi ESE 10.4 mph - N/A   Mostly Cloudy
12:17 PM 68.2 °F 55.0 °F 63% 30.25 in 10.0 mi SE 6.9 mph 16.1 mph N/A   Clear
12:35 PM 68.9 °F 55.6 °F 62% 30.25 in 10.0 mi ESE 9.2 mph - N/A   Clear
12:55 PM 69.8 °F 56.3 °F 62% 30.25 in 10.0 mi SE 9.2 mph - N/A   Clear
1:15 PM 70.3 °F 56.5 °F 61% 30.25 in 10.0 mi SE 8.1 mph - N/A   Clear
1:20 PM 70.3 °F 55.9 °F 60% 30.25 in 10.0 mi East 5.8 mph - N/A   Clear
1:38 PM 71.4 °F 57.2 °F 61% 30.25 in 10.0 mi South 5.8 mph - N/A   Scattered Clouds
1:56 PM 71.4 °F 57.0 °F 60% 30.25 in 10.0 mi SE 6.9 mph - N/A   Scattered Clouds
2:15 PM 70.3 °F 57.0 °F 63% 30.25 in 10.0 mi East 4.6 mph - N/A   Scattered Clouds
2:35 PM 71.6 °F 56.8 °F 60% 30.25 in 10.0 mi ESE 5.8 mph - N/A   Scattered Clouds
2:59 PM 72.9 °F 57.0 °F 57% 30.24 in 10.0 mi ESE 6.9 mph - N/A   Mostly Cloudy
3:17 PM 74.1 °F 57.0 °F 55% 30.25 in 10.0 mi SSW 4.6 mph - N/A   Mostly Cloudy
3:35 PM 73.6 °F 56.7 °F 55% 30.24 in 10.0 mi South 8.1 mph - N/A   Mostly Cloudy
3:55 PM 71.8 °F 56.7 °F 59% 30.23 in 10.0 mi SE 8.1 mph - N/A   Clear
4:15 PM 73.2 °F 57.7 °F 58% 30.22 in 10.0 mi SE 9.2 mph - N/A   Clear
4:19 PM 73.6 °F 57.4 °F 57% 30.22 in 10.0 mi ESE 5.8 mph - N/A   Clear
4:38 PM 71.6 °F 57.2 °F 60% 30.22 in 10.0 mi South 5.8 mph - N/A   Clear
4:56 PM 73.0 °F 56.7 °F 56% 30.23 in 10.0 mi SSE 4.6 mph - N/A   Mostly Cloudy
5:15 PM 72.1 °F 57.4 °F 60% 30.21 in 10.0 mi South 5.8 mph - N/A   Mostly Cloudy
5:16 PM 72.3 °F 57.6 °F 60% 30.21 in 10.0 mi South 3.5 mph - N/A   Mostly Cloudy
5:35 PM 71.6 °F 57.2 °F 60% 30.21 in 10.0 mi South 3.5 mph - N/A   Mostly Cloudy
5:36 PM 71.6 °F 57.4 °F 61% 30.21 in 10.0 mi SSE 3.5 mph - N/A   Mostly Cloudy
5:59 PM 71.4 °F 56.7 °F 60% 30.21 in 10.0 mi SSE 6.9 mph - N/A   Mostly Cloudy
6:17 PM 72.1 °F 57.6 °F 60% 30.20 in 10.0 mi SE 6.9 mph - N/A   Mostly Cloudy
6:55 PM 70.3 °F 57.4 °F 63% 30.20 in 10.0 mi SSE 3.5 mph - N/A   Clear
6:56 PM 70.3 °F 57.6 °F 64% 30.20 in 10.0 mi SSE 4.6 mph - N/A   Clear
7:15 PM 69.6 °F 57.4 °F 65% 30.19 in 10.0 mi SE 3.5 mph - N/A   Clear
7:38 PM 67.8 °F 58.5 °F 72% 30.20 in 10.0 mi ESE 8.1 mph - N/A   Scattered Clouds
7:56 PM 67.6 °F 58.1 °F 71% 30.20 in 10.0 mi ESE 9.2 mph - N/A   Mostly Cloudy
8:15 PM 66.6 °F 57.9 °F 74% 30.21 in 10.0 mi ESE 4.6 mph - N/A   Mostly Cloudy
8:16 PM 66.6 °F 57.9 °F 74% 30.21 in 10.0 mi ESE 4.6 mph - N/A   Mostly Cloudy
8:35 PM 66.2 °F 57.6 °F 74% 30.21 in 10.0 mi ESE 9.2 mph - N/A   Overcast
8:36 PM 66.2 °F 57.6 °F 74% 30.21 in 10.0 mi ESE 8.1 mph - N/A   Overcast
8:59 PM 64.4 °F 57.6 °F 78% 30.22 in 10.0 mi East 6.9 mph - N/A   Mostly Cloudy
9:16 PM 64.4 °F 57.4 °F 78% 30.21 in 10.0 mi ESE 8.1 mph - N/A   Mostly Cloudy
9:35 PM 63.9 °F 56.8 °F 78% 30.21 in 10.0 mi ESE 8.1 mph - N/A   Overcast
9:36 PM 63.9 °F 56.8 °F 78% 30.21 in 10.0 mi East 9.2 mph - N/A   Overcast
9:55 PM 63.1 °F 56.8 °F 80% 30.21 in 10.0 mi ESE 8.1 mph - N/A   Mostly Cloudy
10:15 PM 63.0 °F 57.2 °F 81% 30.22 in 10.0 mi ESE 6.9 mph - N/A   Mostly Cloudy
10:38 PM 62.8 °F 57.2 °F 82% 30.21 in 10.0 mi ESE 6.9 mph - N/A   Overcast
10:56 PM 62.6 °F 57.2 °F 82% 30.22 in 10.0 mi ESE 5.8 mph - N/A   Mostly Cloudy
11:15 PM 63.0 °F 56.8 °F 80% 30.22 in 10.0 mi SE 9.2 mph - N/A   Overcast
11:16 PM 63.0 °F 56.8 °F 80% 30.22 in 10.0 mi ESE 9.2 mph - N/A   Overcast
11:35 PM 63.0 °F 56.5 °F 79% 30.22 in 10.0 mi SE 9.2 mph - N/A   Overcast
11:59 PM 63.1 °F 56.3 °F 78% 30.22 in 10.0 mi SE 9.2 mph - N/A   Overcast